Regional Weather Roundup
Issued by NWS Jackson, KY

Home | Current Version | Previous Version | Graphics & Text | Print | Product List | Glossary On
Versions: 1 2 3 4 5 6 7 8 9 10 11 12 13 14 15 16 17 18 19 20 21 22 23 24 25 26 27 28 29 30 31 32 33 34 35 36 37 38 39 40 41 42 43 44 45 46 47 48 49 50
000
ASUS43 KJKL 021910
RWRJKL

EAST KENTUCKY HOURLY WEATHER ROUNDUP
NATIONAL WEATHER SERVICE JACKSON KY
300 PM EDT TUE SEP 02 2014

NOTE: "FAIR" INDICATES FEW OR NO CLOUDS BELOW 12,000 FEET WITH
NO SIGNIFICANT WEATHER AND/OR OBSTRUCTIONS TO VISIBILITY.

* THESE REPORTS ARE NOT UNDER NWS QUALITY CONTROL AND MAY NOT
  REPORT WEATHER SUCH AS PRECIPITATION AND FOG.

KYZ079-080-083-085-087-088-110-112-115-119-120-022000
...EASTERN KENTUCKY...

CITY           SKY/WX    TMP DP  RH WIND       PRES   REMARKS
JACKSON        TSTM      78  73  84 CALM      30.00F
LONDON         MOSUNNY   88  69  53 SW10G18   30.01F HX  92
SOMERSET*      PTSUNNY   86  68  54 SW14G21   30.01F
MONTICELLO*    MOSUNNY   89  73  59 SW9G18    30.01F HX  96
WILLIAMSBURG*  MOSUNNY   86  70  58 SW13      30.01F HX  90
MIDDLESBORO*   MOSUNNY   86  72  62 S8        30.03F HX  91
HARLAN APT*    PTCLDY    86  66  51 MISG      30.03F
BLACK MTN*       N/A     75  70  83 E1          N/A
PIKEVILLE APT* MOSUNNY   86  70  58 S5        29.99F HX  90
BIG SANDY*     LGT RAIN  81  76  84 N5        29.99F
MOREHEAD APT*  MOCLDY    82  70  65 SW12G21   29.99F
$$

KYZ035-036-041-042-044-050-067-078-099-022000
...CENTRAL KENTUCKY...

CITY           SKY/WX    TMP DP  RH WIND       PRES   REMARKS
MT STERLING*   PTSUNNY   86  72  62 W10G20    29.99F HX  92
FLEMING/MASON* CLOUDY    77  68  73 NW7       29.99S
DANVILLE*      MOSUNNY   88  72  58 SW9       30.00F HX  94
RICHMOND*      MOSUNNY   84  72  65 S9        29.98F
LEXINGTON      PTSUNNY   85  71  63 SW14      29.98F HX  90
FRANKFORT      PTSUNNY   84  72  67 SW13      29.96F
$$

KYZ091>093-OHZ055-061-077-WVZ005-015-034-035-042-022000
...SOUTHERN OHIO/WEST VIRGINIA...

CITY           SKY/WX    TMP DP  RH WIND       PRES   REMARKS
COLUMBUS       CLOUDY    81  64  56 W13G20    29.93S
DAYTON         CLOUDY    77  66  68 W9        29.97S
WILMINGTON     LGT RAIN  77  68  73 W10       29.96S
HUNTINGTON     PTSUNNY   83  70  64 W8        29.96F
CHARLESTON     TSTM      75  72  90 SW5       29.99S
PINEVILLE*     MOSUNNY   89  71  54 MISG      30.08F HX  95
BECKLEY        MOSUNNY   83  64  52 SW15G24   30.09F
BLUEFIELD      SUNNY     84  64  50 W9        30.13F
$$

VAZ002-007-008-TNZ017-027-036-066-071-022000
...SOUTHWEST VIRGINIA/EAST TENNESSEE...

CITY           SKY/WX    TMP DP  RH WIND       PRES   REMARKS
WISE*          PTSUNNY   81  64  57 S13       30.12F
JONESVILLE*      N/A     88  68  51 S9        30.06F HX  91
ABINGDON*      MOSUNNY   86  68  54 W9        30.10F
BRISTOL        MOSUNNY   87  66  49 W9        30.06F
KNOXVILLE      MOSUNNY   88  70  55 SW14G21   30.03F HX  93
OAK RIDGE      MOSUNNY   91  70  49 VRB7G17   30.05F HX  96
CROSSVILLE     SUNNY     86  63  45 SW12G20   30.09F
NASHVILLE      PTSUNNY   91  72  53 SW10G18   29.99F HX  98
$$

...KEY TO REMARKS...
VSB - VISIBILITY IN MILES
WCI - WIND CHILL INDEX
HX  - HEAT INDEX

$$


USA.gov is the U.S. government's official web portal to all federal, state and local government web resources and services.